Location: D�nning
(49.2479°N, 12.8491°E)
Time: 07:58:06
(UTC+00:00)

Cosmos 1867 - Pass Details

Date: 18 September 2020
Orbit: 777 x 799 km, 65.0° (Epoch: 24 October)

Event Time Altitude Azimuth Distance (km) Brightness Sun altitude
Rises 18:25:48 0° 320° (NW) 3,314 7.8 -12.3°
Reaches altitude 10° 18:28:14 10° 319° (NW) 2,381 7.0 -12.7°
Maximum altitude 18:33:43 79° 235° (SW) 818 3.7 -13.5°
Enters shadow 18:38:38 13° 149° (SSE) 2,163 5.4 -14.3°
